Regional Weather Roundup
Issued by NWS Bismarck, ND

Home | Current Version | Previous Version | Text Only | Print | Product List | Glossary On
Versions: 1 2 3 4 5 6 7 8 9 10 11 12 13 14 15 16 17 18 19 20 21 22 23 24 25 26 27 28 29 30 31 32 33 34 35 36 37 38 39 40 41 42 43 44 45 46 47 48 49 50
000
ASUS43 KBIS 281010
RWRBIS

NWR BROADCAST TEXT
NATIONAL WEATHER SERVICE BISMARCK ND
500 AM CDT MON MAY 28 2018

NOTE: "FAIR" INDICATES FEW OR NO CLOUDS BELOW 12,000 FEET WITH NO
SIGNIFICANT WEATHER AND/OR OBSTRUCTIONS TO VISIBILITY.


CITY           SKY/WX    TMP DP  RH WIND       PRES   REMARKS
WILLISTON      CLEAR     59  46  62 N8        30.06F
MINOT          PTCLDY    58  47  66 NW9       30.03S
MINOT AFB      CLEAR     55  48  75 NW8       30.02R
BISMARCK       MOCLDY    64  59  83 N8        29.97F
DICKINSON      CLOUDY    61  56  83 NE8       30.00F
GARRISON         N/A     62  51  67 N6        30.03R
HETTINGER ARPT CLOUDY    62  57  83 N14       29.94F
JAMESTOWN      CLOUDY    64  60  87 N7        29.95R
CARRINGTON     FAIR      63  59  88 N8        30.01S
HAZEN          CLOUDY    61  59  94 NE3       30.04S
LINTON         FAIR     N/A N/A N/A E6        29.98R
MANDAN         FAIR      61  61 100 MISG      29.99F
STANLEY          N/A     59  46  63 NE8G15    30.10R
TIOGA          FAIR      54  50  87 NE9       30.09F
WATFORD CITY   FAIR      59  52  77 NE3       30.07R
$$

CITY           SKY/WX    TMP DP  RH WIND       PRES   REMARKS
GRAND FORKS    FAIR      59  58  96 N7        29.93R
GRAND FORKS AF FAIR      60  60 100 N8        29.95R
DEVILS LAKE    FAIR      61  57  87 N7        30.00R
FARGO          FAIR      67  60  78 NE8       29.89R
CANDO          FAIR      59  59 100 N8        30.03S
CAVALIER         N/A     63  59  88 NW9       29.98R
GRAFTON        FAIR      63  61  94 N9        29.97R
GWINNER          N/A     66  61  82 CALM      29.92S
LANGDON        FAIR      61  61 100 NE9       30.03R
ROLLA          FAIR      57  57 100 NW8       30.05R
WALHALLA       FAIR      59  61 100 NW3       30.00R
$$

CITY           SKY/WX    TMP DP  RH WIND       PRES   REMARKS
ABERDEEN       MOCLDY    69  62  78 N14       29.88S
MOBRIDGE       MOCLDY    68  62  81 NE12      29.91F
BUFFALO          N/A     64  55  72 VRB6      29.86F
RAPID CITY     CLOUDY    60  55  83 SW13      29.96F
GLASGOW        CLEAR     58  43  57 E13       30.05F
SIDNEY         PTCLDY    59  52  77 N9        30.06F
WOLF POINT     PTCLDY    53  45  74 CALM      30.07F
GLENDIVE       MOCLDY    60  54  80 NE8       30.03F
MILES CITY     CLOUDY    60  58  92 NE10      29.99F
BAKER          CLOUDY    61  58  90 NE12      30.02F
$$

CITY           SKY/WX    TMP DP  RH WIND       PRES   REMARKS
BILLINGS       CLOUDY    58  55  90 SW5       30.05F
GREAT FALLS    PTCLDY    56  48  74 W6        30.06F
REGINA         CLEAR     52  41  66 E7        30.10S
ESTEVAN        PTCLDY    46  45  93 N8        30.08F
$$




USA.gov is the U.S. government's official web portal to all federal, state and local government web resources and services.